DMSP 5D-2 F13 DEB

Satellite information

Favourite Embed

Satellite Type and Status

DEBRISIN ORBIT

Key statistics

Satellite DMSP 5D-2 F13 DEB at a glance.

Uptime

11008

Days in orbit

Revolutions

≈ 14.5

Per day

Orbit

SSO

Sun Synchronous Orbit

Inclination

98.6

Latest

Satellite identification and parameters

Extended collection of information and parameters for DMSP 5D-2 F13 DEB.

Object identification

Identified? True

Debris? True

Object name: DMSP 5D-2 F13 DEB

International designator: 1995-015FC

Object number (NORAD): 40605

Object ID (CCSDS): 40605

Country: UNITED STATES OF AMERICA (US)

Current information (Y/N): Y

RCS size: SMALL

Orbital parameters

Period: 99.222 minutes

Inclination: 98.6383 deg

SMA: 7099.566 km

Apoapsis: 736.395 km

Periapsis: 706.468 km

RAAN: 181.2118 deg

Eccentricy: 0.0021077

Argument of periapsis: 27.1169 deg

Mean anomaly: 333.1121 deg

Mean motion: 14.51292787 rev/day

Mean motion (dot): 0.00009863 rev/day2

B* drag term: 0.0024801 1/REarth

Two-line elements (TLE)

Creation date: May 12, 2025, 2:31 a.m.

Reference frame: TEME

Reference center: EARTH

Epoch: May 11, 2025, 9:01 p.m. UTC

TLE line 0: 0 DMSP 5D-2 F13 DEB

TLE line 1: 1 40605U 95015FC 25131.87603063 .00009863 00000-0 24801-2 0 9993

TLE line 2: 2 40605 98.6383 181.2118 0021077 27.1169 333.1121 14.51292787524145

Live tracking on map

Real-time ground track for satellite DMSP 5D-2 F13 DEB.

In-orbit conjunctions

A list of the most updated potential collisions computed for object DMSP 5D-2 F13 DEB.

Target Orbit TCA Probability of collision Miss distance Type
SL-8 DEB LEO 2025-01-18 21:36:29 0.0001400517 119.0 (m) DEBRIS
COSMOS 2251 DEB LEO 2024-11-14 16:39:57 0.0001263991 659.0 (m) DEBRIS
COSMOS 1110 LEO 2024-07-29 01:10:09 0.0001527135 825.0 (m) PAYLOAD

Associated space launch

Military meteorological satellite

DMSP 5D-2 F13 DEB was lifted into orbit during the mission ‘Atlas E | DMSP-5D2 F13’, on board a Atlas E space rocket.

The launch took place on March 24, 1995, 2:05 p.m. from Space Launch Complex 3W.

For more information about the launch, click the button.

Launch to space Atlas E | DMSP-5D2 F13
Atlas E | DMSP-5D2 F13

Agency: N/A

Status: Launch Successful

Launch date: March 24, 1995, 2:05 p.m. UTC

Rocket: Atlas E

Launch pad: Space Launch Complex 3W

Location: Vandenberg SFB, CA, USA

...

Latest news about this satellite

There are no fresh news available about this satellite. Check back as we update our databases every day.


Newsletter sign-up

Weekly statistics, charts and insights to help you stay on top of the space industry.